Hourly Data Report for October 05, 2017

All times are specified in Local Standard Time (LST). Add 1 hour to adjust for Daylight Saving Time where and when it is observed.

BRANDON A
MANITOBA

49°54'36.000" N
99°57'08.000" W
409.30 m
5010481
71140
YBR

Download Data

Hourly Data (October 2017)
Hourly Data Report for October 5, 2017
Temp Definition
°C
Dew Point Temp Definition
°C
Rel Hum Definition
%
Wind Dir Definition
10's deg

Wind Spd Definition
km/h
Visibility Definition
km
Stn Press Definition
kPa
Hmdx Definition


Wind Chill Definition


Weather Definition


TIME
00:00 Legend Double Dagger -1.2 -3.0 88 31 12 24.1 97.14   -5 Clear
01:00 Legend Double Dagger -1.7 -3.5 88 30 13 24.1 97.15   -6 LegendNANA
02:00 Legend Double Dagger -1.5 -3.3 87 31 14 24.1 97.17   -6 LegendNANA
03:00 Legend Double Dagger -1.8 -3.3 90 33 12 24.1 97.17   -6 Clear
04:00 Legend Double Dagger -2.0 -3.3 91 32 6 24.1 97.21   -4 LegendNANA
05:00 Legend Double Dagger -2.9 -3.9 93 26 8 24.1 97.23   -6 LegendNANA
06:00 Legend Double Dagger -3.1 -4.4 91 30 9 24.1 97.23   -7 Clear
07:00 Legend Double Dagger -3.5 -4.5 93 35 7 24.1 97.25   -6 LegendNANA
08:00 Legend Double Dagger 0.9 -0.4 91 22 7 24.1 97.30     LegendNANA
09:00 Legend Double Dagger 5.4 1.8 77 36 2 24.1 97.33     Clear
10:00 Legend Double Dagger 7.8 2.6 70 19 3 24.1 97.34     LegendNANA
11:00 Legend Double Dagger 9.4 1.5 58 14 7 24.1 97.34     LegendNANA
12:00 Legend Double Dagger 10.9 2.1 55 30 7 24.1 97.30     Mainly Clear
13:00 Legend Double Dagger 12.4 2.1 49 30 16 24.1 97.23     LegendNANA
14:00 Legend Double Dagger 13.3 1.3 44 28 15 24.1 97.16     LegendNANA
15:00 Legend Double Dagger 13.7 1.3 43 29 11 24.1 97.11     Clear
16:00 Legend Double Dagger 14.1 0.5 39 30 14 24.1 97.05     LegendNANA
17:00 Legend Double Dagger 13.4 0.7 42 28 13 24.1 97.03     LegendNANA
18:00 Legend Double Dagger 9.7 1.0 54 26 10 24.1 97.00     Clear
19:00 Legend Double Dagger 5.2 0.0 69 27 7 24.1 96.98     LegendNANA
20:00 Legend Double Dagger 3.1 -0.7 76 27 4 24.1 96.96     LegendNANA
21:00 Legend Double Dagger 1.2 -1.5 82 27 3 24.1 96.94     Clear
22:00 Legend Double Dagger 0.2 -2.0 85 26 4 24.1 96.92     LegendNANA
23:00 Legend Double Dagger -0.3 -2.5 85 27 5 24.1 96.88   -2 LegendNANA

Notes on Data Quality.

Legend

  • E = Estimated
  • M = Missing
  • NA = Not Available
  • ‡ = Partner data that is not subject to review by the National Climate Archives
Date modified: